Weather History for Nausori, Fiji

Change the Weather History Date:

Friday, March 1, 2013

  Actual Average Record
Temperature  
Mean Temperature 82 °F -  
Max Temperature 90 °F - - ()
Min Temperature 73 °F - - ()
Cooling Degree Days 16    
Growing Degree Days 32 (Base 50)    
Moisture  
Dew Point 76 °F    
Average Humidity 84    
Maximum Humidity 100    
Minimum Humidity 49    
Precipitation  
Precipitation 0.00 in - - ()
Sea Level Pressure  
Sea Level Pressure 29.85 in    
Wind  
Wind Speed 1 mph ()    
Max Wind Speed 12 mph    
Max Gust Speed -    
Visibility 6.8 miles    
Events      
T = Trace of Precipitation, MM = Missing Value Source: Averaged Metar Reports

Daily Weather History Graph

Daily Weather History Graph

Search for Another Location

Airport:

Trip Planner

Search our weather history database for the weather conditions in past years. The results will help you decide how hot, cold, wet, or windy it might be!

Date:

Astronomy

Mar. 01, 2013 Rise Set
Actual Time 6:04 AM FJT 6:31 PM FJT
Civil Twilight 5:42 AM FJT 6:53 PM FJT
Nautical Twilight 5:16 AM FJT 7:19 PM FJT
Astronomical Twilight 4:50 AM FJT 7:45 PM FJT
Moon 8:42 PM FJT (3/1) 8:45 AM FJT (3/1)
Length of Visible Light 13h 10m
Length of Day
12h 26m
Waning Gibbous, 89% of the Moon is Illuminated
Mar 1
Waning Gibbous
Mar 5
Last Quarter
Mar 12
New
Mar 20
First Quarter
Mar 27
Full

Hourly Weather History & Observations

Time (FJT) Temp. Heat Index Dew Point Humidity Pressure Visibility Wind Dir Wind Speed Gust Speed Precip Events Conditions
12:00 AM 77 °F - 76 °F 94% 29.86 in 12 mi Calm Calm - -   Partly Cloudy
12:00 AM 77.0 °F - 75.2 °F 94% 29.86 in 6.2 mi Calm Calm - N/A   Mostly Cloudy
1:00 AM 77.0 °F - 75.2 °F 94% 29.83 in 6.2 mi Calm Calm - N/A   Mostly Cloudy
2:00 AM 77.0 °F - 75.2 °F 94% 29.83 in 6.2 mi Calm Calm - N/A   Mostly Cloudy
3:00 AM 75 °F - 75 °F 99% 29.83 in 12 mi Calm Calm - -   Partly Cloudy
3:00 AM 75.2 °F - 75.2 °F 100% 29.83 in 6.2 mi Calm Calm - N/A   Mostly Cloudy
4:00 AM 75.2 °F - 75.2 °F 100% 29.83 in 6.2 mi Calm Calm - N/A   Mostly Cloudy
5:00 AM 75.2 °F - 75.2 °F 100% 29.83 in 6.2 mi Calm Calm - N/A   Mostly Cloudy
6:00 AM 75 °F - 75 °F 99% 29.86 in 12 mi NNW 4.6 mph - -   Partly Cloudy
6:00 AM 75.2 °F - 75.2 °F 100% 29.83 in 6.2 mi NNW 4.6 mph - N/A   Mostly Cloudy
7:00 AM 75.2 °F - 75.2 °F 100% 29.86 in 6.2 mi Calm Calm - N/A   Mostly Cloudy
8:00 AM 78.8 °F - 77.0 °F 94% 29.89 in 6.2 mi Calm Calm - N/A   Mostly Cloudy
9:00 AM 80 °F - 76 °F 84% 29.90 in 31 mi Calm Calm - -   Partly Cloudy
9:00 AM 80.6 °F 87.1 °F 77.0 °F 89% 29.89 in 6.2 mi Calm Calm - N/A   Mostly Cloudy
10:00 AM 82.4 °F 90.9 °F 77.0 °F 84% 29.89 in 6.2 mi Calm Calm - N/A   Mostly Cloudy
11:00 AM 86.0 °F 96.9 °F 77.0 °F 74% 29.89 in 6.2 mi Calm Calm - N/A   Mostly Cloudy
12:00 PM 87 °F - 75 °F 60% 29.87 in 31 mi Calm Calm - -   Partly Cloudy
12:00 PM 87.8 °F 97.6 °F 75.2 °F 66% 29.86 in 6.2 mi Calm Calm - N/A   Mostly Cloudy
1:00 PM 89.6 °F 99.8 °F 75.2 °F 62% 29.83 in 6.2 mi North 3.5 mph - N/A   Mostly Cloudy
2:00 PM 89.6 °F 98.2 °F 73.4 °F 59% 29.83 in 6.2 mi NNE 11.5 mph - N/A   Partly Cloudy
3:00 PM 90 °F - 73 °F 49% 29.82 in 31 mi NE 10.4 mph - -   Partly Cloudy
3:00 PM 89.6 °F 98.2 °F 73.4 °F 59% 29.80 in 6.2 mi NE 10.4 mph - N/A   Partly Cloudy
4:00 PM 87.8 °F 97.6 °F 75.2 °F 66% 29.80 in 6.2 mi NE 11.5 mph - N/A   Partly Cloudy
5:00 PM 84.2 °F 94.1 °F 77.0 °F 79% 29.80 in 6.2 mi NE 5.8 mph - N/A   Scattered Clouds
6:00 PM 83 °F - 76 °F 75% 29.84 in 31 mi Calm Calm - -   Partly Cloudy
6:00 PM 82.4 °F 90.9 °F 77.0 °F 84% 29.83 in 6.2 mi Calm Calm - N/A   Mostly Cloudy
7:00 PM 82.4 °F 90.9 °F 77.0 °F 84% 29.86 in 6.2 mi Calm Calm - N/A   Scattered Clouds
8:00 PM 80.6 °F 87.1 °F 77.0 °F 89% 29.86 in 6.2 mi Calm Calm - N/A   Scattered Clouds
9:00 PM 80 °F - 77 °F 89% 29.90 in 31 mi Calm Calm - -   Partly Cloudy
9:00 PM 80.6 °F 87.1 °F 77.0 °F 89% 29.89 in 6.2 mi Calm Calm - N/A   Scattered Clouds
10:00 PM 78.8 °F - 77.0 °F 94% 29.89 in 6.2 mi Calm Calm - N/A   Scattered Clouds
11:00 PM 78.8 °F - 77.0 °F 94% 29.89 in 6.2 mi Calm Calm - N/A   Scattered Clouds